1529564400.44,40934,20.5,74416.3,17.35,-10.53,-11.81,0,*49
1529564401.7,40935,20.5,74418.0,17.37,-10.71,-12.15,0,*44
1529564402.92,40936,20.5,74412.0,17.37,-10.49,-11.81,0,*42
1529564404.18,40937,20.5,74414.8,17.39,-10.97,-12.35,0,*42
1529564405.41,40938,20.5,74416.8,17.41,-10.49,-11.85,0,*49
1529564406.69,40939,20.5,74418.5,17.43,-11.37,-12.83,0,*47
1529564407.95,40940,20.5,74418.5,17.43,-11.45,-12.83,0,*4C
1529564409.18,40941,20.5,74412.3,17.45,-10.45,-11.67,0,*43
1529564410.43,40942,20.5,74416.3,17.45,-9.49,-10.75,0,*76
1529564411.66,40943,20.5,74418.5,17.49,-10.67,-12.03,0,*4C
1529564412.87,40944,20.5,74416.0,17.53,-11.15,-12.43,0,*40
1529564414.12,40945,20.5,74418.3,17.51,-11.19,-12.57,0,*4A
1529564415.34,40946,20.5,74416.5,17.53,-10.31,-11.37,0,*45
1529564416.6,40947,20.5,74418.8,17.55,-10.49,-11.85,0,*44
1529564417.85,40948,20.5,74420.5,17.59,-10.57,-11.77,0,*45
1529564419.08,40949,20.5,74416.3,17.59,-9.57,-10.85,0,*70
1529564420.3,40950,20.5,74418.5,17.59,-10.01,-11.15,0,*4B
1529564421.54,40951,20.5,74420.0,17.63,-8.93,-10.05,0,*71
1529564422.82,40952,20.5,74418.3,17.63,-9.49,-10.63,0,*74
1529564424.07,40953,20.5,74418.8,17.67,-10.31,-11.63,0,*47
1529564425.33,40954,20.5,74418.3,17.67,-9.57,-10.79,0,*72
1529564426.53,40955,20.5,74420.0,17.69,-8.97,-10.09,0,*77
1529564427.74,40956,20.5,74416.0,17.75,-9.05,-10.23,0,*7B
1529564428.97,40957,20.5,74416.5,17.77,-9.23,-10.45,0,*7C
1529564430.21,40958,20.5,74420.0,17.79,-9.57,-10.79,0,*71
1529564431.47,40959,20.5,74416.0,17.81,-9.19,-10.41,0,*76
1529564432.71,40960,20.5,74416.8,17.85,-8.93,-10.19,0,*76
1529564433.95,40961,20.5,74414.0,17.85,-9.05,-10.19,0,*79
1529564435.17,40962,20.5,74418.8,17.87,-8.55,-9.83,0,*47
1529564436.38,40963,20.5,74418.0,17.87,-8.89,-9.93,0,*46
1529564437.57,40964,20.5,74418.0,17.91,-8.63,-9.71,0,*4E
1529564438.79,40965,20.5,74416.0,17.95,-8.41,-9.49,0,*40
1529564440.01,40966,20.5,74418.3,17.99,-8.81,-10.01,0,*77
1529564441.24,40967,20.5,74416.8,18.01,-9.57,-10.85,0,*7E
1529564442.44,40968,20.5,74416.3,18.03,-8.71,-9.67,0,*42
1529564443.65,40969,20.5,74418.8,18.03,-8.03,-8.97,0,*48
1529564444.93,40970,20.5,74414.5,18.07,-7.57,-8.51,0,*40
1529564446.12,40971,20.5,74416.5,18.09,-7.83,-8.67,0,*43
1529564447.32,40972,20.5,74422.3,18.13,-8.75,-9.67,0,*4C
1529564448.54,40973,20.5,74422.8,18.17,-8.51,-9.31,0,*4C
1529564449.74,40974,20.5,74422.0,18.17,-8.93,-9.67,0,*46
1529564450.94,40975,20.5,74420.5,18.21,-9.19,-9.97,0,*4E
1529564452.14,40976,20.5,74416.3,18.21,-10.27,-10.93,0,*44
1529564453.38,40977,20.5,74418.8,18.25,-9.49,-10.01,0,*7A
1529564454.61,40978,20.5,74416.8,18.23,-10.35,-10.89,0,*40
1529564455.82,40979,20.5,74420.3,18.25,-9.75,-10.15,0,*7E
1529564457.04,40980,20.5,74420.5,18.23,-9.67,-10.05,0,*7C
1529564458.28,40981,20.5,74422.8,18.25,-11.93,-12.43,0,*49
1529564459.56,40982,20.5,74420.5,18.23,-11.51,-11.85,0,*4B
1529564460.81,40983,20.5,74420.8,18.23,-11.19,-11.37,0,*4F
1529564462.05,40984,20.5,74420.8,18.25,-10.57,-10.75,0,*42
1529564463.31,40985,20.5,74420.5,18.25,-10.71,-10.71,0,*43
1529564464.51,40986,20.5,74422.3,18.25,-9.19,-9.19,0,*40
1529564465.72,40987,20.5,74424.0,18.27,-8.63,-8.41,0,*43
1529564466.91,40988,20.5,74424.3,18.29,-8.75,-8.41,0,*45
1529564468.13,40989,20.56,74424.5,18.31,-8.63,-8.33,0,*4F
1529564469.35,40990,20.5,74422.3,18.33,-8.17,-7.65,0,*4A
1529564470.57,40991,20.5,74420.5,18.37,-8.41,-7.87,0,*40
1529564471.78,40992,20.5,74422.8,18.37,-9.23,-8.55,0,*46
1529564473.0,40993,20.5,74422.3,18.41,-9.19,-8.37,0,*4B
1529564474.22,40994,20.5,74422.8,18.43,-8.97,-7.91,0,*4A
1529564475.44,40995,20.5,74422.8,18.43,-8.25,-6.97,0,*45
1529564476.65,40996,20.5,74422.3,18.45,-8.29,-6.85,0,*4F
1529564477.84,40997,20.5,74424.5,18.47,-8.17,-6.55,0,*4C
1529564479.08,40998,20.5,74420.5,18.49,-7.99,-6.35,0,*42
1529564480.35,40999,20.5,74420.5,18.53,-7.73,-5.81,0,*40
1529564481.56,41000,20.5,74424.0,18.55,-8.03,-6.05,0,*49
1529564482.8,41001,20.5,74424.0,18.57,-7.61,-5.47,0,*44
1529564484.02,41002,20.5,74424.5,18.59,-7.91,-5.55,0,*45
1529564485.2,41003,20.5,74424.8,18.63,-8.33,-6.01,0,*48
1529564486.45,41004,20.5,74424.8,18.65,-9.37,-6.73,0,*49
1529564487.64,41005,20.5,74426.3,18.63,-10.05,-7.11,0,*72
1529564488.86,41006,20.5,74422.5,18.63,-8.71,-5.81,0,*40
1529564490.12,41007,20.5,74422.5,18.65,-8.81,-5.77,0,*41
1529564491.34,41008,20.56,74420.8,18.67,-8.17,-4.81,0,*4B
1529564492.56,41009,20.5,74420.8,18.69,-8.03,-4.53,0,*4E
1529564493.81,41010,20.5,74422.3,18.71,-7.01,-3.35,0,*45
1529564495.03,41011,20.5,74422.3,18.73,-6.43,-2.71,0,*40
1529564496.22,41012,20.56,74424.8,18.77,-6.69,-2.83,0,*42
1529564497.47,41013,20.5,74420.0,18.79,-6.09,-2.11,0,*40
1529564498.68,41014,20.56,74424.0,18.81,-6.51,-2.35,0,*4B
1529564499.93,41015,20.56,74420.8,18.87,-5.93,-1.63,0,*41
1529564501.13,41016,20.5,74420.5,18.89,-5.51,-1.21,0,*44
1529564502.33,41017,20.5,74422.3,18.93,-5.51,-1.21,0,*4E
1529564503.52,41018,20.5,74426.0,18.97,-5.35,-0.69,0,*7A
1529564504.75,41019,20.5,74426.5,18.99,-5.47,-0.85,0,*72
1529564505.94,41020,20.5,74422.8,19.03,-6.05,-1.33,0,*43
1529564507.13,41021,20.5,74420.8,19.07,-6.43,-1.59,0,*48
1529564508.32,41022,20.5,74418.5,19.07,-8.17,-3.31,0,*48
1529564509.56,41023,20.5,74422.8,19.09,-6.63,-1.67,0,*4B
1529564510.78,41024,20.5,74426.3,19.09,-5.47,-0.53,0,*7F
1529564512.0,41025,20.5,74420.8,19.13,-4.93,0.01,0,*67
1529564513.22,41026,20.5,74420.5,19.13,-6.59,-1.63,0,*48
1529564514.48,41027,20.56,74424.8,19.17,-5.93,-0.93,0,*76
1529564515.72,41028,20.56,74424.8,19.17,-6.13,-1.05,0,*4C
1529564516.94,41029,20.5,74426.5,19.19,-6.13,-1.13,0,*44
1529564518.17,41030,20.56,74428.3,19.21,-6.09,-1.13,0,*4C
1529564519.4,41031,20.5,74424.0,19.21,-5.15,-0.03,0,*43
1529564520.65,41032,20.5,74426.3,19.25,-4.85,0.17,0,*54
1529564521.86,41033,20.5,74424.0,19.25,-5.39,-0.53,0,*7E
1529564523.1,41034,20.5,74420.5,19.25,-6.93,-2.15,0,*4A
1529564524.31,41035,20.5,74416.0,19.31,-5.89,-1.17,0,*47
1529564525.56,41036,20.5,74416.3,19.27,-5.77,-1.39,0,*4E
1529564526.74,41037,20.5,74416.3,19.27,-4.61,-0.15,0,*76
1529564527.97,41038,20.5,74418.8,19.33,-3.79,0.47,0,*58
1529564529.18,41039,20.5,74420.3,19.35,-3.11,1.01,0,*62
1529564530.42,41040,20.56,74422.5,19.39,-2.15,1.85,0,*69
1529564531.66,41041,20.5,74420.5,19.41,-2.03,1.67,0,*6C
1529564532.87,41042,20.5,74422.5,19.45,-3.35,0.29,0,*54
1529564534.1,41043,20.5,74424.8,19.47,-3.59,-0.03,0,*48
1529564535.35,41044,20.5,74424.3,19.47,-5.27,-1.63,0,*47
1529564536.58,41045,20.5,74420.8,19.47,-4.29,-0.93,0,*77
1529564537.78,41046,20.5,74424.0,19.53,-4.37,-0.97,0,*7A
1529564538.99,41047,20.5,74420.8,19.53,-3.51,-0.07,0,*45
1529564540.23,41048,20.5,74420.0,19.55,-2.99,0.37,0,*57
1529564541.45,41049,20.5,74422.8,19.57,-2.67,0.67,0,*50
1529564542.65,41050,20.5,74424.0,19.61,-2.91,0.33,0,*55
1529564543.9,41051,20.56,74430.3,19.63,-2.63,0.51,0,*5F
1529564545.12,41052,20.56,74426.5,19.65,-3.03,0.09,0,*60
1529564546.33,41053,20.56,74426.8,19.67,-3.19,-0.23,0,*7D
1529564547.55,41054,20.5,74424.0,19.69,-4.57,-1.67,0,*48
1529564548.77,41055,20.56,74430.0,19.71,-5.69,-2.83,0,*45
1529564550.02,41056,20.56,74426.3,19.71,-5.03,-2.11,0,*41
1529564551.24,41057,20.5,74422.8,19.71,-5.85,-3.07,0,*48
1529564552.45,41058,20.5,74420.0,19.71,-6.05,-3.47,0,*48
1529564553.69,41059,20.5,74426.0,19.69,-7.49,-4.93,0,*47
1529564554.91,41060,20.5,74424.8,19.67,-8.17,-5.65,0,*4F
1529564556.15,41061,20.5,74424.0,19.63,-7.91,-5.55,0,*48
1529564557.37,41062,20.5,74420.8,19.61,-7.53,-5.23,0,*46
1529564558.62,41063,20.5,74422.3,19.59,-7.11,-5.03,0,*48
1529564559.89,41064,20.56,74426.0,19.59,-7.05,-5.23,0,*48
1529564561.13,41065,20.5,74424.8,19.55,-7.65,-6.09,0,*48
1529564562.35,41066,20.5,74424.3,19.53,-8.59,-7.35,0,*43
1529564563.55,41067,20.5,74424.5,19.45,-8.21,-7.11,0,*4C
1529564564.8,41068,20.5,74424.0,19.43,-8.07,-7.23,0,*40
1529564566.02,41069,20.5,74424.0,19.37,-8.29,-7.73,0,*4B
1529564567.21,41070,20.56,74428.8,19.37,-6.89,-6.39,0,*48
1529564568.46,41071,20.56,74424.3,19.33,-5.85,-5.73,0,*4F
1529564569.66,41072,20.5,74424.5,19.31,-5.55,-5.55,0,*47
1529564570.86,41073,20.56,74428.0,19.33,-5.35,-5.35,0,*44
1529564572.06,41074,20.5,74426.5,19.33,-4.29,-4.53,0,*4E
1529564573.28,41075,20.5,74426.5,19.27,-4.05,-5.07,0,*44
1529564574.49,41076,20.5,74424.0,19.27,-6.27,-7.83,0,*4B
1529564575.71,41077,20.5,74422.5,19.27,-6.77,-8.03,0,*48
1529564576.92,41078,20.5,74422.3,19.23,-5.85,-6.89,0,*41
1529564578.18,41079,20.5,74422.3,19.21,-4.77,-5.93,0,*46
1529564579.38,41080,20.5,74426.3,19.19,-3.27,-4.41,0,*47
1529564580.6,41081,20.56,74426.5,19.21,-2.95,-4.25,0,*47
1529564581.81,41082,20.56,74424.5,19.19,-4.37,-5.81,0,*4E
1529564583.02,41083,20.5,74420.5,19.19,-4.93,-6.35,0,*4D
1529564584.2,41084,20.5,74424.0,19.19,-4.99,-6.77,0,*46
1529564585.45,41085,20.56,74432.5,19.17,-4.89,-7.19,0,*41
1529564586.66,41086,20.56,74430.5,19.15,-5.69,-8.17,0,*4E
1529564587.88,41087,20.5,74426.8,19.11,-6.23,-8.89,0,*41
1529564589.07,41088,20.56,74430.5,19.11,-6.89,-9.75,0,*4C
1529564590.3,41089,20.5,74428.3,19.07,-6.97,-10.05,0,*7A
1529564591.53,41090,20.5,74426.5,19.01,-7.15,-10.45,0,*7B
1529564592.78,41091,20.5,74426.3,19.01,-7.61,-11.11,0,*79
1529564593.97,41092,20.5,74424.0,18.97,-10.05,-13.73,0,*46
1529564595.22,41093,20.5,74420.8,18.93,-11.37,-15.21,0,*42
1529564596.45,41094,20.5,74424.0,18.91,-10.01,-13.73,0,*42
1529564597.65,41095,20.56,74428.3,18.85,-10.53,-14.33,0,*42
1529564598.92,41096,20.56,74426.0,18.77,-11.29,-15.39,0,*4B
1529564600.21,41097,20.56,74426.0,18.75,-13.83,-17.41,0,*47
1529564601.42,41098,20.5,74420.3,18.67,-15.01,-19.13,0,*4E
1529564602.68,41099,20.56,74418.3,18.57,-15.15,-18.93,0,*40
1529564603.92,41100,20.5,74418.0,18.53,-14.15,-17.83,0,*4A
1529564605.17,41101,20.56,74418.3,18.49,-14.51,-18.17,0,*42
1529564606.41,41102,20.56,74416.3,18.43,-14.47,-18.11,0,*4A
1529564607.67,41103,20.56,74418.8,18.35,-13.23,-16.65,0,*42
1529564608.92,41104,20.56,74418.3,18.31,-14.29,-17.55,0,*4E
1529564610.12,41105,20.56,74420.5,18.29,-14.37,-17.73,0,*4D
1529564611.37,41106,20.5,74418.3,18.27,-14.61,-17.63,0,*42
1529564612.6,41107,20.5,74416.8,18.21,-14.93,-18.07,0,*45
1529564613.86,41108,20.5,74416.0,18.19,-13.73,-16.65,0,*42
1529564615.06,41109,20.5,74416.0,18.17,-10.85,-13.51,0,*45
1529564616.27,41110,20.5,74416.0,18.17,-10.89,-13.55,0,*45
1529564617.5,41111,20.5,74418.5,18.17,-9.93,-12.53,0,*70
1529564618.7,41112,20.5,74416.8,18.21,-9.75,-12.21,0,*7B
1529564619.92,41113,20.56,74420.3,18.23,-10.05,-12.29,0,*4F
1529564621.15,41114,20.5,74418.3,18.23,-10.19,-12.47,0,*4D
1529564622.35,41115,20.56,74420.3,18.25,-11.19,-13.47,0,*4A
1529564623.6,41116,20.5,74418.3,18.27,-11.63,-13.73,0,*41
1529564624.86,41117,20.5,74416.0,18.27,-11.29,-13.11,0,*4A
1529564626.14,41118,20.5,74416.8,18.27,-10.79,-12.65,0,*43
1529564627.37,41119,20.56,74416.3,18.29,-10.19,-12.11,0,*49
1529564628.59,41120,20.56,74418.5,18.29,-11.81,-13.73,0,*46
1529564629.82,41121,20.5,74414.0,18.29,-10.31,-12.07,0,*4F
1529564631.05,41122,20.5,74416.5,18.29,-10.19,-11.89,0,*43
1529564632.31,41123,20.56,74416.8,18.31,-10.97,-12.75,0,*4D
1529564633.57,41124,20.56,74416.3,18.33,-10.79,-12.35,0,*4C
1529564634.82,41125,20.56,74416.3,18.33,-11.07,-12.61,0,*44
1529564636.07,41126,20.56,74418.0,18.35,-12.15,-13.73,0,*43
1529564637.35,41127,20.5,74412.8,18.35,-12.75,-14.51,0,*43
1529564638.58,41128,20.5,74414.0,18.33,-13.93,-15.43,0,*41
1529564639.78,41129,20.5,74416.0,18.33,-13.47,-15.15,0,*4A
1529564641.06,41130,20.56,74416.3,18.31,-11.33,-12.75,0,*40
1529564642.31,41131,20.56,74416.5,18.33,-9.83,-11.07,0,*77
1529564643.54,41132,20.56,74418.5,18.33,-9.31,-10.67,0,*7A
1529564644.78,41133,20.5,74416.5,18.37,-8.29,-9.49,0,*43
1529564645.98,41134,20.56,74420.3,18.43,-8.97,-10.15,0,*73
1529564647.21,41135,20.56,74420.0,18.45,-8.97,-10.19,0,*78
1529564648.41,41136,20.56,74420.3,18.47,-9.01,-10.05,0,*7A
1529564649.63,41137,20.5,74418.8,18.51,-9.71,-10.71,0,*78
1529564650.88,41138,20.5,74414.8,18.53,-9.53,-10.57,0,*71
1529564652.12,41139,20.56,74420.5,18.55,-10.75,-11.77,0,*49
1529564653.35,41140,20.56,74426.5,18.55,-11.15,-12.15,0,*47
1529564654.59,41141,20.56,74422.8,18.55,-10.79,-11.59,0,*46
1529564655.85,41142,20.5,74422.5,18.55,-10.75,-11.29,0,*4E
1529564657.14,41143,20.56,74414.8,18.57,-11.93,-12.53,0,*4A
1529564658.33,41144,20.56,74414.8,18.55,-13.11,-13.69,0,*4F
1529564659.58,41145,20.56,74414.0,18.55,-11.73,-12.11,0,*46
1529564660.83,41146,20.56,74412.8,18.53,-11.45,-11.73,0,*41
1529564662.06,41147,20.56,74414.3,18.55,-14.29,-14.47,0,*4B
1529564663.31,41148,20.5,74414.8,18.53,-14.23,-14.43,0,*4C
1529564664.6,41149,20.56,74410.0,18.49,-14.05,-14.05,0,*40
1529564665.82,41150,20.5,74410.3,18.49,-13.11,-13.07,0,*4F
1529564667.05,41151,20.56,74414.3,18.49,-13.11,-12.97,0,*46
1529564668.28,41152,20.56,74416.0,18.47,-12.21,-11.67,0,*45
1529564669.48,41153,20.56,74422.5,18.47,-12.93,-12.47,0,*4C
1529564670.75,41154,20.5,74414.8,18.45,-12.61,-11.89,0,*45
1529564671.96,41155,20.5,74412.5,18.45,-10.09,-9.23,0,*71
1529564673.16,41156,20.56,74416.3,18.47,-9.49,-8.55,0,*4C
1529564674.4,41157,20.56,74418.3,18.49,-11.23,-10.27,0,*4A
1529564675.65,41158,20.56,74416.3,18.51,-11.81,-10.71,0,*47
1529564676.91,41159,20.5,74416.3,18.49,-11.29,-10.19,0,*43
1529564678.11,41160,20.56,74418.3,18.51,-10.93,-9.67,0,*71
1529564679.35,41161,20.56,74422.0,18.51,-9.53,-8.11,0,*44
1529564680.59,41162,20.56,74418.3,18.53,-9.01,-7.39,0,*47
1529564681.82,41163,20.56,74416.0,18.53,-8.93,-7.23,0,*47
1529564683.03,41164,20.5,74412.5,18.59,-7.77,-6.09,0,*46
1529564684.27,41165,20.56,74420.3,18.59,-8.07,-6.27,0,*43
1529564685.54,41166,20.5,74416.0,18.65,-8.81,-6.97,0,*4A
1529564686.75,41167,20.56,74418.5,18.65,-8.33,-6.35,0,*4A
1529564687.97,41168,20.5,74418.5,18.69,-7.35,-5.39,0,*4F
1529564689.19,41169,20.56,74418.8,18.69,-7.99,-6.09,0,*48
1529564690.43,41170,20.56,74418.5,18.75,-7.39,-5.39,0,*47
1529564691.69,41171,20.56,74422.0,18.75,-7.91,-5.93,0,*44
1529564692.93,41172,20.56,74424.8,18.77,-7.11,-5.23,0,*46
1529564694.14,41173,20.56,74422.0,18.81,-7.31,-5.43,0,*4A
1529564695.35,41174,20.5,74418.8,18.81,-6.09,-4.29,0,*4A
1529564696.55,41175,20.5,74418.0,18.85,-6.09,-4.41,0,*41
1529564697.8,41176,20.56,74416.8,18.87,-5.89,-4.37,0,*4A
1529564699.04,41177,20.56,74414.3,18.91,-4.89,-3.35,0,*48
1529564700.28,41178,20.5,74410.8,18.91,-5.11,-3.91,0,*49
1529564701.51,41179,20.5,74410.0,18.93,-5.15,-4.21,0,*42
1529564702.7,41180,20.56,74414.3,18.97,-4.05,-3.15,0,*40
1529564703.92,41181,20.56,74414.8,18.99,-3.75,-3.15,0,*4F
1529564705.16,41182,20.5,74412.8,18.99,-3.67,-3.27,0,*4E
1529564706.4,41183,20.56,74414.8,19.01,-3.87,-3.67,0,*45
1529564707.64,41184,20.56,74416.5,19.07,-3.47,-3.71,0,*4F
1529564708.86,41185,20.56,74416.8,19.07,-3.47,-3.91,0,*40
1529564710.08,41186,20.56,74418.3,19.11,-2.63,-3.27,0,*4E
1529564711.3,41187,20.56,74418.5,19.11,-1.67,-2.55,0,*4C
1529564712.52,41188,20.56,74418.0,19.17,-1.29,-2.35,0,*49
1529564713.73,41189,20.5,74416.0,19.19,-0.49,-1.91,0,*7C
1529564714.91,41190,20.56,74420.3,19.23,-0.49,-2.27,0,*73
1529564716.12,41191,20.56,74418.5,19.25,-0.81,-2.91,0,*7D
1529564717.33,41192,20.56,74422.0,19.31,-1.25,-3.59,0,*41
1529564718.51,41193,20.56,74422.8,19.31,-0.73,-3.35,0,*78
1529564719.73,41194,20.5,74416.5,19.33,-2.83,-5.93,0,*4A
1529564720.95,41195,20.5,74418.5,19.33,-3.03,-6.27,0,*4E
1529564722.14,41196,20.56,74420.0,19.33,-3.23,-6.85,0,*47
1529564723.39,41197,20.56,74420.3,19.27,-3.63,-7.61,0,*4C
1529564724.6,41198,20.5,74422.0,19.31,-2.51,-6.73,0,*46
1529564725.79,41199,20.5,74418.8,19.27,-2.27,-6.81,0,*4C
1529564727.03,41200,20.56,74422.0,19.25,-2.03,-6.73,0,*46
1529564728.27,41201,20.5,74416.8,19.25,-0.81,-5.65,0,*7B
1529564729.48,41202,20.56,74418.3,19.27,0.55,-4.41,0,*59
1529564730.69,41203,20.56,74416.3,19.33,0.95,-4.25,0,*53
1529564731.91,41204,20.56,74418.5,19.33,1.43,-3.79,0,*60
1529564733.14,41205,20.56,74418.3,19.37,1.63,-3.71,0,*6F
1529564734.37,41206,20.5,74412.8,19.39,2.13,-3.19,0,*68
1529564735.6,41207,20.56,74418.5,19.43,0.43,-5.19,0,*55
1529564736.82,41208,20.5,74416.8,19.43,1.01,-4.33,0,*64
1529564738.07,41209,20.5,74418.5,19.43,1.71,-3.55,0,*65
1529564739.28,41210,20.5,74416.3,19.47,2.27,-2.91,0,*60
1529564740.52,41211,20.56,74422.8,19.53,0.91,-4.73,0,*51
1529564741.73,41212,20.56,74420.5,19.53,-1.43,-6.69,0,*48
1529564742.95,41213,20.56,74422.0,19.49,-1.17,-6.23,0,*4D
1529564744.15,41214,20.56,74420.8,19.55,0.01,-4.65,0,*6C
1529564745.38,41215,20.56,74426.3,19.53,-1.17,-5.85,0,*4F
1529564746.63,41216,20.5,74418.8,19.49,-1.39,-5.81,0,*4F
1529564747.83,41217,20.5,74418.0,19.49,-3.03,-7.15,0,*4A
1529564749.08,41218,20.56,74420.3,19.47,-3.83,-7.73,0,*43
1529564750.32,41219,20.56,74416.3,19.41,-4.69,-8.11,0,*4C
1529564751.52,41220,20.56,74418.8,19.41,-5.55,-8.63,0,*4D
1529564752.74,41221,20.56,74420.8,19.33,-5.47,-7.99,0,*40
1529564753.92,41222,20.5,74416.8,19.31,-6.47,-8.59,0,*41
1529564755.14,41223,20.56,74416.8,19.23,-5.31,-7.11,0,*42
1529564756.36,41224,20.56,74412.8,19.23,-5.31,-6.59,0,*48
1529564757.58,41225,20.56,74416.0,19.19,-6.93,-7.83,0,*4D
1529564758.78,41226,20.56,74416.3,19.11,-6.51,-6.81,0,*4B
1529564760.05,41227,20.56,74422.8,19.09,-4.81,-4.81,0,*4E
1529564761.27,41228,20.56,74420.8,19.07,-5.69,-5.47,0,*43
1529564762.52,41229,20.56,74416.3,19.01,-5.97,-5.19,0,*4E
1529564763.73,41230,20.56,74418.0,18.97,-5.27,-4.17,0,*4C
1529564764.94,41231,20.56,74416.3,18.95,-4.61,-3.19,0,*45
1529564766.13,41232,20.56,74414.5,18.93,-3.23,-1.55,0,*4B
1529564767.36,41233,20.56,74416.5,18.89,-4.33,-2.51,0,*40
1529564768.55,41234,20.56,74418.3,18.89,-4.45,-2.31,0,*40
1529564769.83,41235,20.56,74414.3,18.87,-5.15,-2.55,0,*49
1529564771.05,41236,20.56,74416.0,18.79,-5.43,-2.39,0,*42
1529564772.28,41237,20.56,74418.0,18.79,-4.37,-0.97,0,*77
1529564773.52,41238,20.56,74414.5,18.79,-3.55,-0.03,0,*46
1529564774.74,41239,20.56,74416.8,18.79,-3.87,-0.03,0,*48
1529564775.93,41240,20.56,74420.3,18.77,-3.83,0.05,0,*67
1529564777.15,41241,20.56,74422.5,18.75,-3.75,0.43,0,*5F
1529564778.37,41242,20.56,74420.8,18.75,-4.53,-0.11,0,*75
1529564779.6,41243,20.56,74422.0,18.71,-3.59,0.97,0,*5E
1529564780.79,41244,20.56,74420.5,18.73,-3.35,1.41,0,*6B
1529564782.02,41245,20.56,74424.5,18.71,-3.39,1.71,0,*67
1529564783.26,41246,20.56,74420.3,18.71,-4.13,1.13,0,*6F
1529564784.46,41247,20.5,74422.3,18.69,-3.79,1.75,0,*6C
1529564785.67,41248,20.56,74424.3,18.67,-3.27,2.25,0,*60
1529564786.91,41249,20.56,74426.8,18.67,-3.63,2.01,0,*67
1529564788.15,41250,20.5,74422.3,18.65,-3.11,2.73,0,*6D
1529564789.33,41251,20.56,74426.0,18.63,-3.07,2.91,0,*61
1529564790.54,41252,20.5,74420.0,18.65,-3.11,2.91,0,*63
1529564791.77,41253,20.56,74426.0,18.65,-3.19,3.03,0,*60
1529564792.95,41254,20.56,74426.3,18.63,-3.23,2.95,0,*66
1529564794.15,41255,20.56,74420.3,18.63,-4.45,2.09,0,*65
1529564795.36,41256,20.56,74420.3,18.59,-4.85,1.79,0,*67
1529564796.59,41257,20.56,74418.8,18.57,-4.81,1.79,0,*6C
1529564797.81,41258,20.56,74422.8,18.55,-4.21,2.43,0,*61
1529564799.06,41259,20.56,74424.3,18.53,-3.71,2.69,0,*6C
1529564800.32,41260,20.56,74424.5,18.53,-5.23,1.37,0,*6F
1529564801.53,41261,20.56,74424.8,18.51,-4.41,1.93,0,*67
1529564802.73,41262,20.56,74424.8,18.47,-5.47,0.87,0,*50
1529564803.96,41263,20.56,74426.0,18.45,-6.27,0.09,0,*60
1529564805.2,41264,20.56,74426.0,18.41,-6.51,-0.27,0,*73
1529564806.41,41265,20.56,74424.3,18.37,-6.81,-0.61,0,*7C
1529564807.65,41266,20.56,74422.8,18.35,-6.19,-0.07,0,*4C
1529564808.86,41267,20.56,74422.3,18.35,-6.39,-0.33,0,*78
1529564810.09,41268,20.56,74416.5,18.33,-5.81,0.17,0,*5A
1529564811.35,41269,20.56,74422.5,18.27,-5.19,0.59,0,*55
1529564812.54,41270,20.56,74424.8,18.29,-6.35,-0.53,0,*79
1529564813.81,41271,20.56,74422.5,18.27,-7.05,-1.35,0,*45
1529564815.05,41272,20.56,74420.3,18.23,-6.77,-1.13,0,*42
1529564816.29,41273,20.56,74420.0,18.23,-6.73,-1.13,0,*47
1529564817.51,41274,20.56,74422.5,18.21,-7.31,-1.63,0,*42
1529564818.71,41275,20.56,74412.8,18.21,-6.39,-0.85,0,*73
1529564819.94,41276,20.56,74412.5,18.19,-7.15,-1.51,0,*4C
1529564821.21,41277,20.56,74414.3,18.19,-6.93,-1.39,0,*4C
1529564822.49,41278,20.56,74412.3,18.19,-7.43,-1.99,0,*45
1529564823.71,41279,20.56,74416.5,18.19,-8.45,-2.79,0,*40
1529564824.93,41280,20.56,74418.0,18.13,-9.27,-3.63,0,*43
1529564826.15,41281,20.56,74422.3,18.13,-9.41,-3.75,0,*45
1529564827.37,41282,20.56,74420.3,18.09,-9.53,-3.87,0,*43
1529564828.59,41283,20.56,74424.3,18.09,-9.27,-3.59,0,*42
1529564829.85,41284,20.56,74418.5,18.09,-7.95,-2.51,0,*4B
1529564831.09,41285,20.5,74416.8,18.11,-5.77,-0.45,0,*7A
1529564832.33,41286,20.56,74418.3,18.11,-6.73,-1.35,0,*48
1529564833.52,41287,20.56,74416.8,18.13,-6.73,-1.59,0,*41
1529564834.77,41288,20.56,74416.5,18.17,-6.63,-1.43,0,*40
1529564835.99,41289,20.56,74420.8,18.21,-5.69,-0.49,0,*76
1529564837.24,41290,20.56,74418.0,18.25,-5.93,-1.01,0,*42
1529564838.43,41291,20.56,74418.3,18.29,-5.47,-0.49,0,*7B
1529564839.64,41292,20.56,74420.0,18.29,-5.97,-1.01,0,*48
1529564840.86,41293,20.56,74416.5,18.33,-5.07,-0.37,0,*7F
1529564842.07,41294,20.56,74412.8,18.43,-5.43,-0.85,0,*76
1529564843.28,41295,20.56,74414.5,18.43,-5.73,-1.21,0,*4B
1529564844.48,41296,20.56,74410.8,18.47,-5.35,-0.93,0,*76
1529564845.7,41297,20.56,74412.8,18.51,-5.85,-1.59,0,*4C
1529564846.91,41298,20.56,74414.8,18.55,-7.05,-3.03,0,*40
1529564848.14,41299,20.56,74412.3,18.57,-8.55,-4.65,0,*4E
1529564849.38,41300,20.56,74410.5,18.59,-7.69,-4.01,0,*43
1529564850.6,41301,20.56,74410.8,18.59,-8.11,-4.53,0,*45
1529564851.81,41302,20.56,74414.8,18.59,-7.95,-4.53,0,*45
1529564853.06,41303,20.56,74414.3,18.65,-7.73,-4.49,0,*48
1529564854.25,41304,20.56,74412.5,18.67,-8.29,-5.35,0,*47
1529564855.49,41305,20.56,74412.5,18.67,-8.03,-5.07,0,*4F
1529564856.73,41306,20.56,74410.5,18.69,-9.61,-6.93,0,*49
1529564857.96,41307,20.56,74412.3,18.69,-10.45,-7.73,0,*79
1529564859.19,41308,20.56,74412.8,18.71,-9.83,-7.53,0,*4F
1529564860.47,41309,20.56,74412.8,18.71,-9.41,-7.27,0,*43
1529564861.71,41310,20.56,74412.3,18.71,-9.45,-7.53,0,*4C
1529564862.93,41311,20.56,74408.8,18.71,-10.01,-8.37,0,*78
1529564864.12,41312,20.56,74412.3,18.73,-10.23,-8.55,0,*7D
1529564865.34,41313,20.56,74410.0,18.73,-9.83,-8.45,0,*4F
1529564866.57,41314,20.56,74412.3,18.73,-10.35,-9.15,0,*79
1529564867.77,41315,20.56,74408.8,18.73,-10.35,-9.27,0,*79
1529564869.04,41316,20.56,74414.8,18.71,-10.67,-10.15,0,*46
1529564870.28,41317,20.56,74414.5,18.73,-10.79,-10.19,0,*46
1529564871.54,41318,20.56,74414.0,18.73,-12.15,-11.63,0,*4D
1529564872.82,41319,20.56,74412.0,18.71,-11.89,-11.37,0,*49
1529564874.05,41320,20.56,74412.3,18.73,-12.83,-12.43,0,*48
1529564875.28,41321,20.56,74416.0,18.69,-12.57,-12.21,0,*4F
1529564876.52,41322,20.56,74414.0,18.67,-11.01,-10.63,0,*46
1529564877.73,41323,20.56,74414.3,18.67,-9.75,-9.45,0,*41
1529564878.93,41324,20.56,74418.3,18.69,-8.29,-7.87,0,*40
1529564880.12,41325,20.56,74418.5,18.73,-8.55,-8.33,0,*41
1529564881.31,41326,20.56,74422.3,18.77,-8.67,-8.71,0,*41
1529564882.59,41327,20.56,74418.8,18.75,-11.59,-11.85,0,*44
1529564883.87,41328,20.56,74412.3,18.71,-13.87,-14.05,0,*43
1529564885.1,41329,20.56,74406.8,18.71,-13.93,-14.33,0,*42
1529564886.33,41330,20.56,74404.3,18.67,-12.79,-13.11,0,*4F
1529564887.53,41331,20.56,74406.5,18.63,-10.23,-10.53,0,*42
1529564888.75,41332,20.56,74408.5,18.67,-8.85,-9.37,0,*4A
1529564889.96,41333,20.56,74408.8,18.69,-7.99,-8.55,0,*42
1529564891.21,41334,20.56,74408.3,18.71,-7.57,-8.33,0,*4E
1529564892.42,41335,20.56,74410.3,18.73,-8.03,-8.75,0,*41
1529564893.67,41336,20.56,74412.3,18.79,-7.43,-8.45,0,*40
1529564894.89,41337,20.56,74410.5,18.81,-7.99,-9.27,0,*44
1529564896.14,41338,20.56,74414.5,18.85,-8.07,-9.41,0,*47
1529564897.36,41339,20.56,74416.0,18.81,-7.87,-9.45,0,*41
1529564898.61,41340,20.56,74412.3,18.87,-7.65,-9.23,0,*45
1529564899.82,41341,20.56,74416.8,18.89,-6.93,-8.59,0,*4E
1529564901.07,41342,20.56,74416.5,18.91,-7.61,-9.75,0,*47
1529564902.28,41343,20.56,74414.3,18.93,-7.35,-9.23,0,*46
1529564903.5,41344,20.56,74414.8,18.95,-6.39,-8.29,0,*41
1529564904.74,41345,20.56,74418.3,19.01,-7.19,-9.15,0,*41
1529564905.99,41346,20.56,74416.0,19.01,-7.49,-9.49,0,*4E
1529564907.21,41347,20.56,74420.0,19.03,-6.97,-8.97,0,*4D